User: anonymous   Login
Location: ?????
(54.9266°N, 38.5527°E)
Time: 17:12:18
(UTC+00:00)
Language:

YAOGAN 11 - Orbit

View from above orbital plane
View from above orbital plane
View from above satellite
View from above satellite

Ground track
Ground track

The orbit data is extracted from the following two-line orbital elements,

1 37165U 10047A   24170.76057804  .00001389  00000-0  19329-3 0  9993
2 37165  98.4346 349.6032 0037691  57.3966 303.0874 14.79087853740285
Epoch (UTC): 18 June 2024 18:15:13
Eccentricity: 0.0037691
inclination: 98.4346°
perigee height: 606 km
apogee height: 658 km
right ascension of ascending node: 349.6032°
argument of perigee: 57.3966°
revolutions per day: 14.79087853
mean anomaly at epoch: 303.0874°
orbit number at epoch: 74028

The dashed part of the orbit path shows where the satellite is in the earth's shadow,  

DLR